| time (UTC) | temp F | wind direction | speed MPH | gust MPH | rain 1hr in | rain 24hr in | rain mn in | humidity % | barometer mb |
| 20260503213024 | 66 | 302 | 2.0 | 8.0 | 0.00 | 0.00 | 0.00 | 29 | 1002.2 |
| 20260503211522 | 66 | 326 | 2.0 | 9.0 | 0.00 | 0.00 | 0.00 | 28 | 1002.4 |
| 20260503210019 | 66 | 22 | 4.0 | 8.0 | 0.00 | 0.00 | 0.00 | 28 | 1002.5 |
| 20260503204518 | 66 | 350 | 2.0 | 10.0 | 0.00 | 0.00 | 0.00 | 27 | 1002.5 |
| 20260503203022 | 67 | 302 | 3.0 | 10.0 | 0.00 | 0.00 | 0.00 | 28 | 1002.5 |
| 20260503201515 | 67 | 300 | 4.0 | 8.0 | 0.00 | 0.00 | 0.00 | 26 | 1002.7 |
| 20260503200013 | 67 | 317 | 4.0 | 9.0 | 0.00 | 0.00 | 0.00 | 23 | 1002.8 |
| 20260503194520 | 67 | 316 | 4.0 | 8.0 | 0.00 | 0.00 | 0.00 | 27 | 1002.8 |
| 20260503193012 | 67 | 346 | 3.0 | 11.0 | 0.00 | 0.00 | 0.00 | 26 | 1002.8 |
| 20260503191510 | 67 | 315 | 3.0 | 8.0 | 0.00 | 0.00 | 0.00 | 31 | 1002.8 |
| 20260503190008 | 67 | 279 | 4.0 | 10.0 | 0.00 | 0.00 | 0.00 | 32 | 1002.9 |
| 20260503184508 | 67 | 329 | 4.0 | 9.0 | 0.00 | 0.00 | 0.00 | 35 | 1003.0 |
| 20260503183006 | 66 | 317 | 5.0 | 9.0 | 0.00 | 0.00 | 0.00 | 35 | 1003.1 |
| 20260503181506 | 66 | 320 | 3.0 | 10.0 | 0.00 | 0.00 | 0.00 | 39 | 1003.2 |
| 20260503180014 | 66 | 69 | 4.0 | 11.0 | 0.00 | 0.00 | 0.00 | 41 | 1003.4 |
| 20260503174510 | 66 | 342 | 3.0 | 11.0 | 0.00 | 0.00 | 0.00 | 43 | 1003.3 |
| 20260503173002 | 66 | 355 | 3.0 | 11.0 | 0.00 | 0.00 | 0.00 | 44 | 1003.5 |
| 20260503171500 | 66 | 327 | 4.0 | 11.0 | 0.00 | 0.00 | 0.00 | 43 | 1003.5 |
| 20260503081504 | 51 | 212 | 0.0 | 0.0 | 0.00 | 0.00 | 0.00 | 76 | 1004.0 |
| 20260503071611 | 52 | 249 | 0.0 | 3.0 | 0.00 | 0.00 | 0.00 | 73 | 1004.8 |
| 20260503070113 | 52 | 249 | 0.0 | 2.0 | 0.00 | 0.00 | 0.00 | 72 | 1005.0 |
| 20260503054555 | 53 | 295 | 1.0 | 4.0 | 0.00 | 0.00 | 0.00 | 66 | 1006.2 |
| 20260503053043 | 52 | 19 | 0.0 | 4.0 | 0.00 | 0.00 | 0.00 | 63 | 1006.1 |
| 20260503051547 | 51 | 24 | 0.0 | 3.0 | 0.00 | 0.00 | 0.00 | 63 | 1006.0 |
| 20260503050035 | 49 | 24 | 0.0 | 1.0 | 0.00 | 0.00 | 0.00 | 64 | 1006.0 |
| 20260503044535 | 49 | 24 | 0.0 | 1.0 | 0.00 | 0.00 | 0.00 | 66 | 1006.0 |
| 20260503043034 | 48 | 24 | 0.0 | 1.0 | 0.00 | 0.00 | 0.00 | 66 | 1005.9 |
| 20260503041534 | 48 | 24 | 0.0 | 0.0 | 0.00 | 0.00 | 0.00 | 66 | 1005.8 |
| 20260503040034 | 48 | 24 | 0.0 | 0.0 | 0.00 | 0.00 | 0.00 | 67 | 1005.9 |
| 20260503034531 | 47 | 24 | 0.0 | 1.0 | 0.00 | 0.00 | 0.00 | 65 | 1006.0 |
| 20260503033030 | 47 | 24 | 0.0 | 1.0 | 0.00 | 0.00 | 0.00 | 65 | 1006.2 |
| 20260503031532 | 47 | 24 | 0.0 | 1.0 | 0.00 | 0.00 | 0.00 | 68 | 1006.4 |
| 20260503030030 | 47 | 24 | 0.0 | 2.0 | 0.00 | 0.00 | 0.00 | 69 | 1006.5 |
| 20260503024532 | 47 | 24 | 0.0 | 0.0 | 0.00 | 0.00 | 0.00 | 68 | 1006.7 |
| 20260503023024 | 47 | 24 | 0.0 | 1.0 | 0.00 | 0.00 | 0.00 | 67 | 1006.8 |
| 20260503021522 | 47 | 24 | 0.0 | 0.0 | 0.00 | 0.00 | 0.00 | 65 | 1006.9 |
| 20260503020022 | 47 | 24 | 0.0 | 0.0 | 0.00 | 0.00 | 0.00 | 65 | 1006.9 |
| 20260503014520 | 47 | 24 | 0.0 | 0.0 | 0.00 | 0.00 | 0.00 | 64 | 1007.2 |
| 20260503013029 | 48 | 24 | 0.0 | 0.0 | 0.00 | 0.00 | 0.00 | 62 | 1007.2 |
| 20260503011514 | 48 | 24 | 0.0 | 0.0 | 0.00 | 0.00 | 0.00 | 62 | 1007.3 |
| 20260503010014 | 49 | 24 | 0.0 | 1.0 | 0.00 | 0.00 | 0.00 | 63 | 1007.4 |
| 20260503004512 | 50 | 24 | 1.0 | 3.0 | 0.00 | 0.00 | 0.00 | 65 | 1007.6 |
| 20260503003014 | 50 | 24 | 0.0 | 1.0 | 0.00 | 0.00 | 0.00 | 63 | 1007.6 |
| 20260503001509 | 50 | 25 | 0.0 | 3.0 | 0.00 | 0.00 | 0.00 | 65 | 1007.7 |
| 20260503000005 | 50 | 12 | 0.0 | 3.0 | 0.00 | 0.00 | 0.00 | 66 | 1008.0 |
| 20260502234504 | 51 | 15 | 0.0 | 2.0 | 0.00 | 0.00 | 0.00 | 68 | 1008.1 |
| 20260502233003 | 53 | 15 | 0.0 | 3.0 | 0.00 | 0.00 | 0.00 | 64 | 1008.2 |
| 20260502231502 | 55 | 17 | 0.0 | 3.0 | 0.00 | 0.00 | 0.00 | 62 | 1008.3 |
| 20260502230002 | 57 | 17 | 0.0 | 3.0 | 0.00 | 0.00 | 0.00 | 54 | 1008.4 |
| 20260502224558 | 58 | 17 | 0.0 | 3.0 | 0.00 | 0.00 | 0.00 | 53 | 1008.6 |
| 20260502223103 | 58 | 17 | 1.0 | 4.0 | 0.00 | 0.00 | 0.00 | 48 | 1008.8 |
| 20260502221554 | 59 | 15 | 1.0 | 5.0 | 0.00 | 0.00 | 0.00 | 40 | 1009.1 |
| 20260502220100 | 60 | 26 | 1.0 | 4.0 | 0.00 | 0.00 | 0.00 | 38 | 1009.2 |
| 20260502214551 | 59 | 37 | 1.0 | 4.0 | 0.00 | 0.00 | 0.00 | 37 | 1009.4 |